Theta_e
303 303 304 304 304 305 305 305 306 304 304 301 299 303 301 301 298 308 311 312 309 301 291 294 291 292 295 299 298 298 296 295 296 294 295 292 294 292 292 292 290 293 291 292 290 292 289 292 290 295 297 300 299 304 303 303 301 298 295 297 296 307 286 285 290 293 295 297 300 300 300 298 294 293 294 294 289 291 291 287 290 284 287 283 283 282 286
303 303 304 304 304 304 305 305 306 305 304 300 300 298 297 298 300 303 311 311 308 297 284 284 285 292 296 296 295 298 296 295 294 293 294 292 292 291 291 293 294 291 294 292 290 293 285 293 293 293 296 297 306 303 303 303 299 297 295 293 299 287 288 288 280 281 284 288 292 294 298 297 292 290 293 295 293 294 295 294 291 284 287 288 283 279 285
303 303 304 304 304 305 305 305 305 305 305 304 300 296 300 298 303 302 305 309 306 294 295 291 286 290 292 292 291 293 294 296 295 294 293 295 293 292 291 293 293 292 294 292 293 294 291 289 297 297 296 298 302 302 304 304 301 301 305 311 300 290 290 287 281 278 276 277 279 281 283 288 291 295 295 296 296 295 289 283 284 281 287 289 284 283 289
303 303 303 304 304 304 305 305 305 305 304 304 301 302 298 297 285 297 299 302 301 299 301 297 293 290 291 285 291 293 291 294 297 296 295 296 296 293 293 293 294 292 292 290 290 291 294 290 294 294 293 296 300 306 303 302 301 308 308 309 302 292 295 292 286 283 282 284 288 294 292 292 287 291 294 294 296 297 293 288 283 281 284 283 288 289 289
303 303 303 304 304 305 305 305 304 304 304 304 300 302 299 300 291 288 284 294 294 293 295 294 295 288 293 284 292 290 292 292 294 297 292 296 294 294 293 293 291 289 290 289 290 292 291 294 294 294 295 298 299 302 301 301 303 307 306 306 296 294 287 291 292 292 292 294 294 294 294 291 292 292 293 296 296 296 292 284 285 290 284 281 288 291 290
302 303 303 304 304 304 305 305 305 304 303 304 304 298 301 290 292 295 296 290 285 285 287 295 294 295 294 290 295 291 291 290 286 294 296 296 296 291 293 294 294 293 292 292 286 291 292 294 288 295 295 294 298 297 300 299 304 305 302 302 298 293 285 292 293 292 293 294 294 295 295 293 293 294 294 295 296 295 292 291 295 291 283 284 290 292 292
302 303 303 303 304 304 305 305 305 304 303 304 304 299 297 297 296 297 300 290 293 292 295 298 295 293 292 290 292 290 290 289 291 291 292 294 294 294 283 290 292 293 294 292 288 289 284 283 292 292 292 292 293 292 298 301 302 300 297 298 299 292 285 293 293 292 293 294 293 295 294 294 293 293 294 295 295 294 294 294 294 294 291 294 294 293 291
302 302 303 303 304 304 305 305 305 304 303 307 305 297 293 292 291 290 298 296 292 294 294 295 293 288 293 284 290 291 289 289 291 293 292 285 291 294 290 290 293 293 293 292 287 289 290 290 285 293 293 292 294 293 295 294 302 304 299 299 299 293 285 294 293 288 290 292 292 293 293 291 290 294 294 296 295 296 295 295 296 296 294 293 293 291 290
302 302 303 303 303 304 305 305 305 304 303 305 303 297 297 299 301 299 293 289 290 292 295 291 289 286 288 285 290 291 290 289 291 291 295 292 290 291 289 291 292 294 292 291 290 291 291 291 291 292 293 288 295 291 294 300 295 297 298 298 298 294 287 294 291 284 286 291 292 291 292 291 290 290 291 291 293 290 293 288 294 293 290 290 291 289 288
301 302 302 303 303 304 304 305 305 304 303 301 301 296 300 300 302 303 297 287 292 291 291 289 288 281 289 292 290 291 291 293 292 284 294 295 295 293 292 292 290 291 292 289 290 292 292 293 294 295 295 296 296 296 296 298 295 295 297 299 291 292 288 283 284 284 283 290 291 291 290 287 284 284 288 290 292 295 294 295 296 296 294 290 287 287 294
301 302 302 303 303 304 304 305 305 305 303 298 298 298 299 295 295 297 298 287 285 288 287 286 286 288 291 292 291 293 293 291 293 286 284 293 294 295 293 291 289 286 289 291 295 295 295 296 297 297 295 295 295 295 296 298 298 300 297 294 293 295 292 286 292 283 284 289 289 289 283 277 280 290 293 292 292 293 290 289 293 296 295 291 294 295 296
301 302 302 302 303 303 304 305 305 306 303 301 302 301 301 302 300 299 289 284 284 290 287 285 287 291 291 290 290 291 290 291 293 293 290 292 293 294 293 291 291 282 292 296 296 296 297 298 298 297 297 295 295 296 297 296 300 300 300 294 292 290 289 286 292 284 283 286 287 282 277 279 290 294 294 295 296 296 294 294 295 296 297 296 295 296 296
301 302 302 302 303 303 304 305 305 306 305 302 302 301 303 306 302 298 292 288 282 287 283 287 291 292 292 292 290 293 292 293 294 295 295 293 292 294 294 292 290 291 295 294 295 294 291 290 292 295 295 295 294 295 295 295 295 297 299 300 293 286 287 287 286 285 286 283 282 277 279 288 292 293 292 293 295 294 293 291 295 297 296 296 293 297 295
301 301 302 302 303 303 304 305 305 306 305 304 301 302 302 304 299 297 291 287 284 287 290 288 289 290 291 291 290 291 294 294 292 295 293 294 292 292 294 294 293 294 294 295 293 292 287 287 282 285 287 290 291 289 292 294 295 294 295 295 298 295 293 287 283 287 281 282 282 282 287 288 285 284 287 288 286 289 288 284 288 297 296 296 294 294 293
301 301 301 302 302 303 304 304 305 305 305 304 302 305 303 303 303 300 299 293 284 285 287 281 286 290 291 291 291 287 287 288 289 288 295 295 294 294 294 295 296 296 296 292 288 290 286 284 280 280 282 281 277 281 291 289 295 296 295 294 295 296 288 288 286 282 284 282 281 281 280 277 281 287 292 293 293 294 294 291 286 295 295 296 294 292 292
301 301 301 302 302 303 304 304 305 305 305 304 302 303 303 304 305 303 299 292 285 280 284 291 293 292 288 289 291 289 284 283 287 289 289 292 293 294 295 296 297 297 296 294 291 286 284 281 279 279 279 281 286 284 280 288 288 294 295 295 295 294 293 290 284 283 282 282 279 278 276 280 286 288 292 295 295 296 295 289 284 292 295 295 293 291 291
301 301 301 302 302 303 303 304 305 305 305 304 300 302 301 305 304 300 297 294 288 282 291 292 294 293 288 287 290 287 288 283 288 282 282 285 289 291 293 296 297 296 295 291 289 285 282 282 285 283 284 289 283 279 288 284 283 285 291 293 291 290 287 286 284 282 283 282 279 278 281 280 286 289 291 293 297 296 293 281 280 291 298 296 294 291 291
301 301 301 301 302 302 303 304 305 305 305 305 302 301 300 304 306 303 299 293 284 284 289 292 290 286 285 287 286 290 292 290 289 290 285 289 289 289 290 293 290 295 297 287 287 282 281 281 279 280 280 289 289 288 279 285 281 280 283 286 283 284 284 285 282 282 284 283 280 281 281 286 289 290 291 293 296 294 282 278 285 293 297 295 294 293 294
301 301 301 301 301 302 302 303 304 305 306 305 303 305 301 303 305 304 299 292 288 282 290 294 295 291 292 294 291 292 292 290 289 283 282 283 286 291 293 293 293 284 292 284 287 281 280 281 287 283 281 284 289 281 287 283 282 287 286 282 284 284 284 284 284 282 281 281 280 279 280 285 289 291 294 293 291 282 280 289 297 295 293 294 295 293 292
301 301 301 301 301 302 302 303 304 305 306 306 303 299 303 304 307 305 299 293 290 286 290 291 293 290 293 290 286 286 288 289 288 284 282 280 289 292 288 283 289 290 286 287 282 285 280 279 281 286 280 282 283 288 284 284 287 282 283 286 282 282 281 281 280 281 282 280 278 277 274 284 292 292 290 291 284 284 292 294 294 295 293 292 292 292 292
301 301 301 301 301 302 302 303 304 305 305 306 304 301 302 302 305 305 304 299 292 284 287 295 295 293 293 292 292 292 290 286 287 284 286 286 290 287 279 279 284 286 282 282 280 281 282 279 281 281 286 283 283 284 280 280 283 287 286 284 284 287 282 282 282 284 278 277 276 276 283 286 292 290 283 288 290 292 294 294 291 293 294 293 293 293 293
301 301 301 301 301 302 302 303 304 304 305 305 305 303 300 303 306 306 307 304 292 286 291 297 296 293 295 296 296 294 293 293 294 294 288 284 289 287 286 288 287 287 289 288 285 282 285 283 285 280 279 281 286 279 283 279 278 283 287 286 279 288 285 285 280 284 281 279 282 288 290 290 291 292 291 292 293 294 293 291 290 289 289 292 291 291 293
301 301 301 301 301 301 302 302 303 303 304 305 304 300 299 303 303 305 304 299 297 298 299 298 296 296 298 297 298 298 297 298 299 297 294 288 284 287 286 285 285 291 292 291 285 284 285 284 280 285 282 282 281 279 283 281 279 281 279 287 285 289 291 290 287 284 289 290 290 291 289 290 290 292 293 292 293 294 294 292 290 291 291 292 291 292 292
301 301 301 301 301 301 301 302 303 303 304 305 304 300 301 303 303 302 301 299 290 288 288 293 289 284 291 292 296 296 297 296 299 298 299 295 284 283 288 291 293 292 289 291 291 287 284 285 285 286 280 283 285 280 278 278 277 282 283 283 287 287 289 288 283 287 285 279 287 288 288 289 290 290 291 292 293 293 293 292 291 291 292 292 293 292 292
300 301 301 301 301 301 301 302 302 303 303 304 304 304 305 305 302 301 298 289 287 287 283 284 287 294 297 297 297 296 296 299 300 299 299 297 293 288 286 291 294 289 289 291 292 287 284 281 283 282 279 285 286 279 284 280 279 284 280 281 283 282 290 287 287 285 283 282 287 288 290 291 291 290 289 289 291 292 292 292 292 292 293 293 293 293 292
301 301 301 301 301 301 301 302 302 303 303 304 304 300 300 300 301 303 300 299 298 292 285 283 289 299 297 296 295 297 300 299 298 301 300 298 298 296 294 294 294 297 294 295 293 285 282 282 281 281 280 280 287 281 280 284 282 286 283 280 286 286 289 281 287 284 287 290 290 290 289 290 291 291 290 289 289 290 291 291 291 292 292 292 293 294 293
300 301 301 301 301 301 301 302 302 302 303 304 302 302 302 303 304 300 297 296 292 286 287 283 289 294 296 295 297 298 299 298 297 296 297 297 297 297 297 293 292 291 291 287 289 285 284 282 281 281 283 283 287 286 285 281 282 280 280 284 287 286 281 285 285 282 281 282 286 289 284 283 288 290 290 290 291 291 290 290 290 290 290 289 290 291 292
301 301 301 301 301 301 301 302 302 302 303 303 303 303 304 304 302 302 301 300 295 286 286 286 287 291 296 295 297 297 297 298 297 297 295 296 297 297 295 293 291 290 289 285 282 282 281 281 281 282 283 284 282 282 286 285 285 283 282 283 285 283 285 282 281 282 282 288 291 291 290 289 290 291 292 292 293 292 292 290 289 289 290 290 289 289 289
300 300 301 301 301 301 302 302 302 303 303 302 301 302 304 304 302 302 302 304 301 296 290 290 293 293 285 291 298 295 297 298 299 297 298 297 297 296 294 293 290 290 291 285 283 282 281 282 284 282 282 287 284 280 282 279 279 278 281 286 286 287 289 287 287 288 289 291 291 292 290 287 290 292 292 292 293 292 292 292 291 290 290 290 290 289 290
300 301 301 301 302 302 302 302 303 303 303 301 301 299 294 296 302 300 301 304 302 298 287 284 283 284 296 296 295 295 295 297 298 298 297 294 296 293 291 291 289 292 291 286 285 280 282 283 283 287 289 290 282 281 279 280 278 280 286 286 288 287 289 290 290 287 285 290 292 293 292 292 292 293 293 293 293 293 291 291 290 289 289 289 288 288 290
301 301 302 302 302 303 303 303 303 303 303 300 299 290 288 286 295 302 301 303 304 299 289 288 284 288 288 295 295 292 294 296 295 295 296 295 294 293 295 293 291 290 282 283 282 283 283 279 281 285 289 286 284 280 279 278 278 279 284 286 286 286 287 287 290 290 290 290 292 292 292 291 292 292 291 291 290 289 289 290 291 292 290 289 288 287 288
301 302 302 303 303 303 303 303 304 303 302 300 294 291 290 292 296 301 302 304 303 298 289 284 283 283 283 288 296 296 295 296 297 297 294 295 293 293 294 294 287 292 288 284 284 283 281 283 281 283 284 287 286 280 280 279 278 279 285 285 287 288 288 288 288 289 290 290 289 288 287 287 289 288 286 289 289 289 289 290 289 289 291 290 289 288 288
302 303 303 303 303 303 303 304 303 302 300 302 303 302 302 300 301 301 304 302 301 294 296 287 282 283 282 287 294 297 297 295 295 294 290 293 292 291 287 294 293 292 297 287 282 280 285 283 283 281 286 289 281 281 280 278 279 284 286 287 287 288 288 288 288 288 289 289 289 285 284 286 288 290 290 290 291 291 290 289 289 289 290 289 289 288 289
302 303 303 303 304 303 303 302 303 302 302 300 300 301 303 301 301 302 301 302 300 297 292 285 281 281 282 291 287 292 296 289 290 291 284 292 294 291 285 288 290 283 287 283 285 283 284 283 281 281 285 281 282 280 276 281 286 287 287 287 287 287 287 287 287 287 289 289 289 289 288 288 288 289 289 288 288 289 290 289 289 288 288 289 288 289 288
303 303 303 303 303 303 303 302 302 302 299 302 300 299 304 302 302 301 303 301 289 287 285 284 285 282 282 283 283 287 297 291 285 288 284 287 294 289 289 283 284 282 282 291 283 284 281 282 286 281 280 283 280 277 278 283 286 286 286 285 287 287 286 286 287 288 289 290 290 288 289 289 288 286 287 289 289 289 289 290 288 287 286 286 288 289 289
303 303 303 303 303 302 302 303 299 299 298 298 298 303 302 304 304 303 304 305 298 287 284 284 285 283 283 280 281 285 294 290 291 291 291 286 288 293 291 284 280 284 288 285 281 283 281 287 283 278 283 279 279 280 281 285 285 286 286 286 287 288 288 288 289 290 291 292 292 291 291 289 288 287 288 289 289 289 289 288 287 287 286 287 287 289 289
303 303 303 302 302 300 297 295 302 301 298 301 304 303 304 303 304 303 301 299 300 299 290 284 283 283 286 282 284 285 290 281 287 285 288 284 282 283 285 282 280 283 283 283 282 281 283 288 282 278 279 278 279 285 287 286 286 285 285 287 289 289 289 289 290 290 289 291 292 289 288 288 288 289 289 288 287 287 286 285 286 285 286 287 288 288 287
303 303 300 299 299 291 291 293 299 305 302 303 304 301 300 297 289 289 291 289 294 295 288 290 284 286 289 286 282 290 289 283 287 283 284 286 283 282 284 282 281 282 278 280 283 288 285 282 280 279 278 284 286 287 287 287 287 287 287 288 289 290 289 290 290 289 287 286 286 287 288 288 288 289 288 288 288 287 286 287 287 286 287 288 287 287 286
301 300 298 298 295 289 290 296 305 300 301 303 303 291 288 289 287 285 284 286 286 284 287 287 284 288 286 285 286 292 289 284 283 284 280 286 282 279 282 278 282 282 279 280 281 288 278 279 281 280 279 282 283 285 288 288 288 289 288 288 289 289 290 291 291 290 288 287 288 288 287 286 286 285 286 286 286 287 288 287 287 287 287 287 287 287 287
300 296 291 291 289 293 301 303 301 301 300 291 291 287 283 286 283 281 287 283 283 285 287 284 290 289 289 285 284 284 292 287 282 282 283 283 289 281 282 282 282 279 274 275 278 286 278 274 279 278 277 280 283 287 288 288 287 288 288 288 288 289 289 291 291 292 291 291 290 290 290 290 289 287 285 286 286 284 286 287 287 288 288 287 287 286 286
299 298 297 291 298 301 300 301 300 299 292 287 285 284 283 280 284 285 284 281 282 282 288 287 290 289 290 290 288 285 291 293 290 289 284 280 286 285 281 277 283 278 277 277 282 282 280 277 277 276 279 283 284 286 287 287 287 287 288 289 289 290 290 290 291 291 290 289 290 289 289 288 288 286 287 288 287 286 284 286 287 287 287 286 285 285 287
296 295 297 299 300 302 301 298 293 287 285 286 281 279 281 282 284 284 285 281 281 284 285 287 284 285 284 287 287 288 287 292 288 285 283 280 284 281 279 281 281 276 273 281 282 281 280 274 275 277 282 286 287 287 287 287 287 287 288 289 289 290 290 289 289 289 289 290 290 289 290 288 288 288 288 288 287 287 288 288 288 288 289 288 288 287 288
300 300 299 297 297 291 291 286 287 286 278 278 277 277 280 278 281 282 282 285 287 286 286 295 291 292 293 294 289 291 286 292 285 284 282 281 285 283 279 278 276 272 277 283 280 277 274 274 275 279 285 286 287 287 287 287 287 287 288 290 289 290 290 290 290 290 290 290 289 288 289 289 289 290 290 290 289 288 288 288 287 286 287 288 287 288 288
300 301 296 292 287 286 287 277 286 283 279 281 278 275 278 278 281 283 282 282 284 285 289 287 288 288 283 288 287 286 286 289 288 285 283 284 281 278 278 275 276 282 284 280 278 274 276 280 282 281 283 286 288 286 286 287 287 287 288 289 289 289 291 291 291 291 289 289 288 289 290 289 290 290 290 290 288 289 288 287 287 287 287 288 288 287 288
293 288 288 285 282 284 282 272 283 280 276 278 282 281 282 281 283 284 282 286 289 286 290 288 287 286 284 289 289 288 285 283 286 282 280 282 278 280 277 276 281 281 278 274 276 277 278 278 283 285 286 285 286 285 287 287 287 286 287 288 289 289 290 291 290 290 290 290 289 290 289 290 289 289 290 290 290 290 288 288 289 288 287 288 287 288 288
289 285 283 277 272 277 280 277 279 278 282 284 283 285 284 285 285 285 289 292 289 289 288 287 288 288 284 288 283 283 285 285 282 282 283 282 277 276 281 283 282 276 274 274 272 271 275 279 282 283 286 285 285 285 287 288 289 288 288 287 288 288 289 289 289 289 290 290 290 290 290 290 292 291 290 289 289 290 289 289 289 290 288 287 287 287 288
289 287 286 284 278 281 283 279 279 282 285 286 287 287 287 288 289 288 290 291 289 290 290 290 289 288 284 284 283 284 285 284 280 282 282 278 278 281 284 278 272 274 271 270 271 274 278 281 283 285 286 285 285 286 287 288 288 288 288 288 288 289 289 289 289 289 289 290 290 290 290 291 292 292 290 290 290 291 290 290 290 290 289 288 288 289 289
284 287 286 278 276 281 279 281 287 289 289 289 288 289 289 290 288 287 290 290 290 291 289 288 285 285 284 288 286 282 283 284 281 281 282 280 282 279 277 275 273 276 277 274 275 280 281 284 284 284 286 287 286 287 287 287 288 288 288 288 289 289 289 289 289 289 290 290 290 289 289 290 290 290 290 290 290 292 292 291 290 289 289 289 289 288 288
288 286 283 281 283 284 283 286 287 285 287 288 288 288 287 288 287 288 289 290 289 289 290 288 284 284 282 285 283 282 281 284 278 279 282 280 275 272 272 270 272 271 278 281 281 283 284 285 286 286 288 288 288 289 288 288 289 288 289 289 289 289 288 288 288 288 289 289 289 289 289 291 290 290 290 290 289 290 291 292 291 290 290 289 288 288 288
286 285 286 284 283 284 287 287 286 284 286 286 286 286 287 287 288 290 293 291 290 289 289 288 287 284 283 282 280 281 281 283 282 282 278 276 277 278 276 272 274 275 279 283 283 283 284 285 287 288 288 287 287 288 287 289 289 289 291 291 291 291 289 289 288 289 289 289 289 289 290 289 290 290 290 289 290 291 291 290 291 290 290 290 289 288 288
289 286 285 289 285 284 285 283 282 282 284 285 286 286 287 287 288 290 293 294 292 287 285 284 285 284 282 280 278 274 278 282 280 279 278 277 280 279 277 275 278 281 283 285 286 285 286 287 285 285 286 288 289 290 290 291 291 293 292 291 291 290 290 290 290 289 289 290 289 290 290 290 291 293 294 292 293 291 290 289 289 290 290 289 289 289 288
285 283 283 286 290 290 290 289 288 286 287 288 288 290 290 288 291 292 295 291 288 284 283 285 284 282 279 277 280 283 284 282 280 280 277 281 282 278 279 281 282 284 284 284 285 285 287 288 287 287 288 288 289 290 290 291 290 290 291 291 291 291 290 290 290 289 289 289 289 289 290 291 290 290 292 290 290 290 288 287 288 289 290 290 289 289 289
Wind_Speed
20 21 22 23 23 22 22 23 22 19 20 7 5 4 2 2 2 5 9 6 6 3 2 3 1 2 4 9 12 12 11 7 8 13 10 9 8 6 5 8 8 4 3 8 9 9 5 6 2 2 2 1 6 1 8 7 8 1 4 3 3 3 2 1 1 0 3 4 5 9 9 11 7 4 5 2 5 7 9 5 4 4 2 2 1 2 2
20 21 22 23 23 23 22 22 21 17 13 5 6 2 2 3 3 1 3 7 7 2 1 4 5 4 8 8 10 8 10 9 9 10 13 6 6 5 4 7 9 8 7 5 9 12 6 4 12 2 5 2 2 7 8 8 2 2 2 1 5 2 2 4 2 2 3 5 7 8 10 6 2 2 7 12 3 4 5 6 3 3 4 11 4 4 3
20 21 22 23 24 22 22 21 19 17 12 8 3 1 2 4 3 3 3 5 2 2 1 3 3 4 5 5 8 9 6 7 6 7 12 10 6 4 3 6 7 8 8 9 10 10 9 3 2 4 2 1 2 4 4 8 4 4 6 5 5 3 1 1 1 3 4 3 2 0 4 6 4 4 9 8 15 1 6 4 1 4 3 4 7 5 2
21 22 23 23 23 22 22 21 20 18 12 10 1 3 2 1 2 1 1 0 2 0 2 3 4 3 4 4 6 9 6 8 8 10 7 13 13 7 7 6 7 7 9 7 7 12 9 11 1 2 1 1 3 2 6 4 5 10 12 8 4 2 2 0 1 6 6 4 2 2 3 6 5 11 14 10 11 8 7 5 5 1 2 5 1 10 11
21 22 23 23 23 24 23 22 22 21 15 6 3 2 2 3 1 1 1 1 5 2 3 3 4 3 3 1 4 5 7 7 7 13 3 9 9 8 7 10 9 6 7 5 8 10 11 9 11 6 3 1 0 1 4 7 7 7 5 8 2 1 3 5 6 4 4 4 5 4 6 4 8 13 13 13 11 8 8 4 2 5 7 3 1 9 13
21 22 23 23 23 25 24 23 24 25 22 9 4 2 2 2 0 2 0 1 1 3 2 3 3 5 5 1 2 4 5 5 4 7 6 8 7 5 7 10 13 12 6 5 3 8 5 8 4 7 7 6 1 6 3 2 9 9 5 6 3 3 3 6 4 6 3 6 7 8 4 5 6 12 11 13 12 13 8 3 1 4 4 7 3 6 11
21 22 22 23 24 24 24 25 26 27 28 11 5 0 3 0 1 1 0 1 3 3 2 2 3 3 6 1 4 4 6 7 7 4 6 8 5 8 2 7 12 11 9 6 3 7 5 5 6 4 5 6 4 2 1 3 8 8 4 4 1 3 1 5 5 4 5 2 10 8 9 3 6 10 9 9 11 10 9 6 3 10 8 13 12 11 8
20 21 21 22 23 23 24 25 25 27 29 11 3 4 3 4 3 3 4 3 3 1 3 2 3 5 6 3 5 6 7 6 10 7 4 3 5 11 9 11 8 8 9 6 4 5 4 4 3 4 2 6 3 2 3 2 3 4 5 5 10 3 2 8 5 5 6 6 5 11 8 3 6 6 11 11 9 9 9 5 11 14 10 12 16 15 10
20 20 21 21 22 22 23 24 24 26 25 6 6 3 3 2 3 1 3 6 3 1 3 4 4 2 2 2 2 3 5 4 6 6 5 5 5 9 10 12 6 6 9 7 5 6 6 7 7 4 4 3 6 2 2 1 5 6 2 3 3 6 2 4 6 1 1 6 4 5 7 6 7 12 13 15 8 4 3 2 5 1 9 7 14 11 7
20 20 20 21 21 22 22 22 22 23 19 3 4 4 5 4 3 4 2 2 6 3 4 6 3 3 1 1 1 1 2 2 3 2 4 8 8 9 9 8 6 6 3 4 4 8 9 10 9 6 6 6 8 7 5 6 6 4 4 3 5 3 1 4 4 5 4 4 12 3 4 2 4 7 9 10 10 2 5 7 9 7 2 13 9 4 4
20 20 20 20 21 21 21 21 20 19 12 6 4 3 4 4 6 5 1 1 2 4 4 4 2 0 3 2 1 4 2 2 2 1 1 4 4 7 6 6 4 5 3 5 9 9 10 10 10 7 6 7 8 7 7 9 4 5 7 4 1 4 6 3 3 2 0 7 4 5 5 4 1 1 5 5 3 4 7 5 4 1 2 3 5 11 6
20 19 20 20 20 20 20 20 20 19 11 4 3 4 3 3 3 2 2 4 3 7 5 3 4 1 4 6 5 3 3 2 2 4 2 2 4 5 4 4 3 4 6 9 9 8 12 13 13 12 11 9 8 10 10 5 5 3 3 7 4 4 5 5 2 1 1 4 7 6 2 1 0 2 10 10 11 10 11 9 12 9 10 8 10 10 10
19 19 20 20 20 20 20 20 20 20 18 9 3 2 4 6 3 3 2 1 4 6 5 7 9 8 11 7 6 3 6 3 2 3 2 3 2 3 2 2 2 5 8 10 10 10 8 5 5 1 4 6 6 7 7 2 4 8 5 5 8 4 6 3 2 2 1 2 2 2 0 2 3 3 10 14 8 12 8 9 7 10 11 12 5 6 13
19 19 19 19 20 20 20 20 21 20 19 13 6 3 4 6 5 4 3 2 4 5 4 4 10 9 10 7 7 8 1 2 3 2 2 4 4 3 2 3 4 6 5 5 7 5 4 2 2 2 2 1 0 1 5 8 12 15 13 6 2 8 1 3 2 2 1 2 4 3 3 2 7 4 7 7 5 8 7 1 4 4 4 7 12 11 12
18 18 18 19 19 19 20 21 21 22 22 20 4 4 4 4 3 1 2 1 1 4 7 6 6 7 8 7 9 6 6 7 4 4 8 2 2 3 4 3 6 5 4 4 3 2 1 1 2 3 3 6 3 3 4 4 2 12 11 12 7 3 3 4 3 1 1 4 3 2 1 2 0 2 5 3 5 10 9 1 3 10 11 4 10 12 9
19 19 18 19 19 19 20 20 20 20 20 21 7 5 3 4 2 1 0 1 2 5 7 5 6 5 4 6 9 7 6 5 8 8 7 1 3 1 2 6 7 11 6 3 2 2 2 1 1 2 1 1 2 0 2 3 5 6 11 13 13 11 9 1 4 2 1 2 2 1 2 1 0 3 3 2 8 8 10 4 5 6 6 7 9 11 8
18 19 19 19 19 19 19 20 20 20 18 17 7 5 2 6 4 4 1 2 7 4 4 8 5 5 5 5 7 6 5 4 7 5 6 5 7 10 11 9 8 8 12 7 2 1 1 0 1 2 1 1 2 1 1 2 2 6 11 9 12 11 8 8 5 3 3 2 2 2 2 1 2 5 4 4 5 6 2 3 1 4 4 7 8 10 8
18 18 18 19 18 19 19 19 19 19 20 21 10 4 3 5 5 6 1 3 3 3 4 7 6 6 5 4 3 4 4 4 6 3 2 7 6 8 11 5 8 7 11 4 4 3 3 0 1 3 2 2 6 3 1 2 1 2 1 3 4 5 4 5 5 2 2 4 2 2 1 1 3 4 7 8 2 1 3 2 3 3 2 6 8 9 6
18 18 18 18 18 19 19 19 19 20 19 20 12 5 2 5 6 8 3 3 3 3 4 7 6 6 5 4 4 4 4 5 5 3 5 7 4 12 15 4 5 5 8 5 4 2 3 3 3 2 2 2 2 1 2 1 1 1 4 4 3 3 1 2 3 4 2 2 4 2 1 1 4 8 3 4 2 3 4 1 2 5 7 7 7 10 8
17 18 18 18 18 19 19 18 19 19 19 19 10 1 7 4 4 5 5 3 2 4 3 4 5 8 4 6 6 6 5 6 6 4 4 4 9 12 7 7 8 5 7 6 6 4 3 5 4 2 3 1 1 1 2 7 7 4 2 4 4 1 2 2 2 3 1 3 3 2 1 3 9 6 4 9 6 0 2 6 7 6 10 11 10 10 9
17 17 18 18 18 19 18 19 19 19 19 20 13 3 4 3 5 6 4 3 1 3 2 2 5 6 4 6 4 4 5 6 4 5 5 3 7 3 4 3 6 4 4 4 5 5 4 5 6 3 3 2 3 2 1 1 3 6 4 3 3 4 3 1 1 1 2 4 3 2 1 3 7 8 5 4 3 1 3 8 9 7 8 9 9 9 8
16 16 17 17 17 18 18 19 19 19 19 20 17 3 2 5 5 6 7 5 2 2 2 2 3 4 5 4 5 4 5 5 4 1 2 5 5 5 1 3 4 3 2 2 2 3 4 2 2 3 5 5 3 3 6 4 4 2 5 4 3 5 4 2 4 3 2 2 4 4 4 3 4 6 8 7 8 11 12 13 10 9 9 9 10 9 8
16 16 16 16 17 17 17 17 18 18 18 19 12 3 2 6 7 6 5 2 1 1 0 2 3 4 2 6 4 3 5 2 1 3 3 3 3 4 5 4 4 3 1 2 1 2 4 3 2 0 2 3 3 3 6 4 3 3 3 3 5 4 7 8 7 7 8 9 7 6 7 6 8 9 6 7 10 11 11 11 10 8 8 8 9 10 10
15 16 16 16 16 16 16 16 17 17 18 17 9 3 3 5 5 7 7 2 2 1 4 6 4 1 1 4 3 4 2 3 1 3 4 4 3 3 1 1 0 2 1 4 2 1 3 1 3 1 3 3 4 5 4 6 3 3 3 2 2 4 4 4 5 4 4 3 4 6 5 5 7 8 7 8 9 9 8 10 9 7 7 9 10 11 11
15 15 16 15 15 15 15 15 16 16 16 17 14 5 4 2 3 5 4 3 4 2 1 1 2 3 1 4 0 2 3 2 1 4 3 5 3 1 1 4 1 1 4 6 3 4 2 2 5 4 3 1 3 2 2 3 3 3 5 3 2 4 4 7 5 4 4 4 6 5 6 5 5 6 6 7 7 8 8 8 7 7 6 8 9 9 9
14 15 15 15 14 14 14 14 15 15 15 17 11 4 3 4 3 4 2 1 1 0 0 1 0 1 2 2 3 6 6 6 5 3 3 3 2 1 3 4 2 2 3 3 3 4 3 3 3 3 3 2 3 2 3 2 2 6 8 4 1 3 4 3 2 5 5 8 6 5 4 5 7 8 7 5 5 5 7 7 7 6 7 6 6 6 6
15 15 15 15 14 13 13 13 14 14 15 16 8 5 3 5 4 5 3 3 2 1 5 2 0 1 3 4 2 5 6 6 4 5 5 4 3 2 3 5 5 4 5 6 2 1 2 3 4 3 2 1 2 2 1 3 5 3 3 4 4 8 6 4 7 7 3 2 4 4 4 3 6 7 7 6 5 6 6 6 6 5 6 5 6 5 4
14 14 15 14 13 12 11 12 12 13 14 14 7 6 5 2 4 6 4 4 5 2 1 2 1 1 2 3 3 5 5 4 3 3 3 4 4 4 3 4 4 4 4 3 6 4 4 6 3 2 1 2 5 5 5 1 4 5 6 4 3 5 2 4 4 3 3 5 3 2 6 4 5 7 7 6 5 6 6 6 6 4 5 4 4 4 4
14 15 15 14 12 10 10 10 11 11 13 10 5 6 3 4 4 6 5 5 2 1 2 3 1 1 1 1 3 1 4 3 2 1 0 1 3 3 2 3 4 4 3 2 1 2 3 2 0 2 1 0 1 3 4 4 4 4 3 3 4 3 4 5 4 8 6 4 6 6 5 5 3 4 5 7 5 5 6 7 5 4 3 1 1 2 6
15 15 14 12 10 9 9 9 10 10 11 5 2 1 1 1 3 5 5 4 3 0 1 3 2 1 1 2 2 5 4 4 3 4 5 4 0 2 4 4 3 4 2 1 1 3 1 2 1 1 1 1 1 0 2 1 4 3 2 4 4 4 6 7 6 5 4 4 8 7 7 6 3 5 5 6 5 7 7 6 7 6 4 7 4 6 7
16 16 15 11 10 8 8 9 9 10 8 2 1 0 0 0 1 3 7 4 4 1 0 1 2 1 1 1 1 3 4 5 1 3 4 4 2 3 2 3 2 3 5 6 4 1 1 2 1 1 0 2 2 2 1 1 2 2 4 6 5 6 5 4 5 6 5 5 6 6 5 3 2 5 6 6 6 5 5 4 5 6 5 3 2 4 3
16 15 13 10 8 7 7 7 8 8 4 3 3 2 1 2 3 6 7 5 4 1 0 2 2 1 1 1 0 1 3 3 3 2 1 3 3 4 5 1 1 1 2 1 1 1 1 1 2 2 2 2 2 1 2 4 4 3 3 7 5 5 5 7 6 4 4 4 4 6 8 6 6 7 3 4 3 3 5 5 4 4 3 1 0 1 3
15 14 12 9 8 7 7 6 6 3 1 3 7 8 5 4 8 7 5 4 0 0 1 0 1 1 1 2 1 2 3 1 1 2 1 3 2 2 2 2 1 2 2 1 2 1 0 1 0 1 1 1 2 1 2 2 3 4 7 5 6 5 6 6 5 4 6 7 7 6 4 3 3 4 5 4 4 6 4 3 3 1 1 1 0 1 3
14 13 11 8 7 7 6 6 8 5 3 1 1 1 2 1 4 5 4 1 0 1 0 0 1 1 0 2 1 3 3 2 2 3 1 2 1 1 1 2 1 2 3 1 0 1 2 2 3 1 0 1 0 1 2 1 5 6 6 6 6 6 5 3 3 4 6 7 5 6 5 5 3 3 3 4 5 4 3 1 1 2 2 1 2 0 2
13 12 11 8 7 7 9 7 3 1 1 2 1 0 1 4 5 5 2 1 2 1 1 1 0 1 0 1 2 2 2 0 2 3 1 1 0 1 1 2 2 1 3 0 1 1 2 1 1 3 1 0 1 0 0 3 5 5 5 4 4 6 4 4 3 4 6 5 4 4 4 2 1 1 3 3 4 6 6 5 4 6 4 4 3 2 4
13 11 10 9 10 5 3 1 1 2 0 0 1 2 2 5 5 2 2 1 1 0 0 1 1 1 1 2 1 1 3 1 1 1 1 1 1 1 1 1 2 1 1 0 1 3 1 1 1 2 1 0 1 1 2 4 6 7 6 6 4 4 2 3 4 6 5 6 6 4 5 4 5 4 2 1 1 3 5 5 4 4 2 1 3 2 5
13 11 10 7 3 1 1 1 0 1 1 1 3 7 6 3 1 1 1 0 1 0 0 0 2 3 2 1 1 1 1 1 1 1 3 2 1 2 1 2 1 1 2 1 3 2 2 2 2 0 0 0 1 5 7 6 6 5 4 2 3 3 2 3 5 7 7 6 6 4 2 1 4 4 1 1 0 2 5 4 5 4 1 0 1 4 4
10 7 3 1 1 0 0 1 1 0 3 6 4 2 1 1 0 0 0 1 1 2 1 0 1 3 3 5 1 3 0 3 3 2 1 0 1 2 1 0 1 1 3 1 0 1 1 0 0 0 2 3 6 6 6 6 5 4 5 5 5 5 4 3 5 5 4 5 4 2 1 1 2 3 3 3 1 2 3 5 5 5 4 1 2 4 3
1 1 1 2 1 1 0 1 2 5 3 3 0 0 0 0 0 0 1 1 1 1 1 2 2 3 4 3 2 1 2 1 2 2 2 0 1 1 1 2 1 0 1 1 2 2 2 1 1 1 3 1 2 2 3 5 5 4 5 5 5 5 4 5 5 6 8 7 5 4 4 3 1 1 3 4 4 5 1 5 5 4 4 3 3 4 3
1 1 1 1 0 1 1 2 6 1 0 0 0 0 0 0 0 0 0 0 0 1 0 2 1 1 1 1 0 2 4 2 2 1 1 1 1 1 0 0 0 1 1 1 1 1 1 2 1 1 1 1 4 4 7 5 6 5 5 5 4 3 4 2 5 6 5 4 4 5 5 2 3 3 3 3 1 4 4 2 3 2 1 3 5 3 2
0 2 1 1 2 0 2 2 1 0 0 0 0 0 0 1 1 0 1 1 0 1 0 1 0 1 1 2 2 3 3 1 2 0 0 1 2 0 1 0 0 1 0 1 0 1 1 1 1 3 2 2 4 4 5 6 5 4 5 5 6 6 6 4 4 5 4 2 2 3 2 3 4 3 1 1 3 2 2 1 1 2 2 4 4 3 5
1 2 2 4 5 5 1 0 0 0 0 0 0 0 0 1 0 1 0 1 1 1 2 1 2 2 1 2 1 1 0 0 0 0 0 1 1 0 0 1 1 1 0 0 1 1 0 0 1 1 2 2 4 5 6 6 6 5 5 6 7 8 9 7 2 4 4 3 2 3 4 5 3 2 1 3 3 1 0 0 1 3 3 5 5 3 8
13 8 2 3 1 1 1 0 1 0 1 0 1 1 1 0 1 1 1 0 1 1 0 1 2 1 1 1 1 1 1 0 1 0 0 0 0 0 0 1 1 0 0 1 0 0 1 0 1 1 1 5 5 7 5 5 4 4 5 6 4 4 5 8 8 2 2 1 4 3 2 3 3 2 2 1 0 1 3 3 3 3 1 3 4 3 10
6 3 1 1 0 0 0 0 0 1 2 0 1 1 2 2 2 1 1 1 0 2 0 1 0 1 0 0 0 0 1 1 0 0 0 1 0 0 1 0 1 1 1 0 0 1 1 2 3 5 3 3 5 5 4 4 2 3 5 2 2 3 2 4 7 10 6 0 1 2 1 3 2 2 1 2 1 1 1 2 2 3 4 2 3 4 8
2 0 0 1 0 0 1 2 2 1 2 1 1 2 1 2 3 3 2 1 1 2 1 1 2 4 2 0 1 1 1 0 0 1 0 0 1 0 0 1 1 1 0 1 1 1 0 1 3 5 2 4 4 4 4 4 4 3 1 2 1 3 3 2 2 3 5 5 2 2 0 0 3 4 2 0 1 3 2 2 2 5 4 2 1 1 4
1 1 1 2 3 3 0 1 1 1 1 2 2 0 4 5 4 4 3 1 1 3 5 3 4 2 1 1 1 1 0 0 0 1 0 1 0 1 1 1 0 1 1 1 1 1 1 1 0 1 2 4 4 5 3 4 3 2 0 1 4 3 4 4 4 3 3 1 2 4 4 5 6 7 6 4 2 1 2 3 2 1 1 2 3 3 4
1 1 0 0 0 0 0 1 2 2 1 3 5 6 6 6 6 4 1 2 5 2 3 1 1 2 2 1 1 1 1 1 0 0 1 0 0 0 1 1 0 0 0 1 1 1 1 2 3 5 2 1 1 1 1 0 1 1 1 1 2 4 3 4 4 4 5 4 2 1 3 3 1 2 1 5 7 8 5 3 2 3 2 3 4 2 4
1 0 0 1 1 1 2 3 3 1 6 5 5 4 4 3 5 5 3 3 3 3 3 2 2 3 2 0 1 0 1 1 0 1 1 0 0 0 1 1 0 0 0 1 2 1 3 1 2 2 3 2 4 4 3 2 1 0 1 3 2 2 2 1 2 1 0 2 4 5 5 5 8 9 6 4 3 6 8 6 4 4 4 3 2 1 5
1 1 0 1 1 0 2 3 2 0 4 4 3 4 3 2 4 5 4 3 5 5 3 2 1 1 1 0 0 0 1 1 1 0 0 1 1 0 0 1 0 1 1 2 2 2 1 1 2 4 5 5 1 1 1 0 2 3 3 6 2 3 4 4 5 4 3 3 3 3 3 6 6 6 5 4 5 6 7 6 4 4 4 4 3 3 2
0 0 0 1 2 2 4 2 2 1 4 4 1 1 3 4 6 3 1 2 2 1 2 1 2 1 0 0 0 0 0 0 0 0 0 0 1 0 1 2 1 1 1 2 2 3 3 4 5 5 4 4 4 3 4 2 4 5 3 1 7 5 3 3 3 2 3 4 4 4 3 1 5 6 6 6 5 4 5 7 5 5 5 5 4 4 4
0 0 1 1 1 2 2 4 3 2 2 3 1 2 3 4 4 2 2 2 2 2 0 1 1 0 1 0 0 0 0 1 1 0 1 1 0 0 1 2 1 3 0 1 3 3 2 4 4 3 3 4 4 5 6 8 5 1 1 4 8 7 5 3 2 2 4 4 3 1 1 0 1 2 2 2 4 4 4 5 4 5 5 5 4 4 4
0 1 2 3 4 5 1 2 1 1 2 4 1 1 4 4 2 3 0 1 1 1 1 1 1 0 1 0 0 0 0 0 1 0 1 1 2 1 1 1 1 0 2 4 5 3 5 4 2 1 1 2 1 1 1 1 2 3 1 2 2 5 5 5 5 4 5 4 3 2 2 1 3 2 4 4 3 4 4 5 5 5 5 6 4 4 5
Wind_Direction
344 343 341 340 340 339 338 338 338 340 342 351 0 312 296 210 260 151 153 164 160 207 302 292 306 237 256 262 263 281 270 267 326 308 332 344 359 348 344 329 340 351 356 337 321 312 305 317 114 158 36 238 223 347 16 9 333 40 313 358 303 334 23 351 239 312 272 320 353 1 31 8 341 355 353 154 194 153 154 216 189 116 237 58 39 81 217
346 344 342 341 341 340 337 336 338 339 354 337 303 293 286 316 303 148 187 169 195 129 35 318 304 311 311 328 317 322 319 332 351 331 329 328 348 339 323 334 353 322 1 341 319 304 269 83 117 44 259 191 342 35 350 333 243 55 298 83 300 19 302 104 5 8 347 358 356 4 340 42 24 310 344 339 300 125 99 108 126 110 206 150 111 184 176
347 345 344 342 341 339 335 335 333 338 339 333 306 305 314 285 247 197 162 208 182 30 335 313 327 302 348 334 323 318 323 348 330 336 332 329 310 324 308 331 326 328 344 331 311 315 331 323 30 130 142 253 309 113 171 10 353 345 344 342 355 95 296 47 122 148 165 212 141 326 312 310 301 353 9 14 22 8 105 99 36 116 293 107 128 142 180
347 346 344 343 341 337 334 333 332 334 340 324 234 255 311 295 336 42 92 327 57 38 27 17 324 360 0 348 332 1 354 341 317 19 343 359 347 342 334 333 344 343 339 327 325 315 338 327 250 78 26 298 323 19 30 53 313 347 340 326 84 333 357 114 174 153 170 167 150 159 88 14 350 1 10 9 24 11 99 105 82 116 182 70 291 151 140
348 346 344 343 340 338 336 335 333 331 338 325 214 259 210 306 239 65 313 327 43 336 52 0 348 4 310 8 329 353 357 360 350 8 332 351 354 347 347 7 2 327 347 347 334 346 331 26 43 29 103 285 350 31 41 339 306 17 343 333 64 33 17 307 4 11 186 128 89 96 74 32 28 40 27 24 26 29 39 97 166 149 82 28 304 143 134
348 346 344 342 339 339 338 337 337 336 336 341 194 303 201 258 341 77 262 103 301 19 341 340 20 19 357 13 5 3 5 7 20 334 344 297 7 347 352 7 4 360 23 334 13 341 19 31 10 346 14 343 355 34 13 120 4 13 331 346 72 117 185 285 28 324 357 105 88 77 75 24 18 52 38 39 23 25 29 345 147 91 133 155 171 122 117
349 347 344 342 340 341 341 341 343 341 334 337 182 16 300 86 332 71 123 58 185 192 172 335 66 47 359 293 4 6 16 16 10 358 349 16 344 326 30 1 12 354 1 18 18 14 25 347 357 359 347 340 320 42 351 20 44 25 335 296 106 70 332 224 191 190 288 299 101 83 78 7 12 54 47 57 51 21 4 358 51 105 120 115 108 91 88
350 348 345 343 342 344 345 345 349 346 341 335 134 53 21 12 343 329 342 317 245 202 129 77 51 72 356 28 347 8 12 13 352 347 29 10 358 3 11 10 18 350 349 22 43 352 359 330 333 289 311 311 247 213 160 181 49 85 7 338 6 45 300 303 214 189 207 208 146 122 120 126 77 29 30 25 52 33 9 18 60 80 82 102 104 103 102
352 349 347 343 344 346 347 349 352 351 348 30 6 28 16 310 342 5 323 328 286 263 136 109 115 88 7 72 351 31 4 13 350 326 350 47 18 9 356 346 355 356 354 16 357 340 319 315 288 291 305 277 290 2 328 146 143 121 40 2 23 53 257 21 1 34 302 12 327 162 145 149 103 41 17 358 352 64 359 9 312 140 129 107 103 99 114
353 352 348 345 346 347 348 351 355 357 344 33 346 352 331 348 319 12 356 323 271 26 61 43 45 21 209 161 146 76 1 332 4 348 348 6 9 0 345 334 343 338 351 350 320 305 298 289 288 270 271 277 286 285 248 189 157 169 133 137 111 138 89 46 345 43 9 296 2 332 102 49 57 11 341 328 309 148 88 34 25 22 83 120 107 148 157
354 353 350 347 347 347 349 351 355 2 5 27 345 313 331 20 334 337 320 277 308 63 83 51 68 247 287 29 319 115 179 310 94 98 271 340 340 337 323 330 358 302 301 323 305 288 287 287 286 279 255 241 264 282 288 282 173 155 148 115 109 112 115 103 25 63 267 352 343 13 60 69 28 342 284 284 263 129 83 88 67 333 1 351 116 132 132
355 354 352 350 347 348 349 351 353 359 10 320 266 262 292 334 290 264 16 28 342 23 36 59 4 344 1 38 344 174 163 204 116 176 222 282 291 288 310 318 8 297 299 310 296 301 293 274 257 251 263 272 257 258 270 286 81 110 107 116 122 121 104 114 132 118 15 341 27 38 55 135 87 321 3 359 24 26 98 100 75 56 78 95 115 113 78
355 356 353 351 349 349 350 351 353 354 358 347 304 267 326 360 6 0 357 45 26 27 21 16 1 12 353 353 354 7 172 204 130 169 205 197 258 270 291 296 258 274 304 297 310 310 313 310 316 277 258 250 224 245 263 55 75 56 60 88 118 107 113 114 57 136 169 55 62 120 165 84 23 331 9 1 24 16 13 65 106 133 128 122 68 72 103
354 355 354 352 351 350 351 352 352 353 356 358 336 302 333 12 21 353 34 32 13 35 9 36 3 346 342 344 26 354 25 297 209 213 230 214 228 261 263 266 294 278 275 297 298 305 335 11 355 357 294 267 332 20 9 29 40 43 40 27 203 123 76 96 76 347 127 133 81 116 7 326 11 4 357 4 0 336 345 158 7 35 138 141 141 132 126
354 355 355 353 352 352 354 355 354 354 355 357 322 305 12 11 29 336 299 173 164 50 30 28 326 332 337 12 15 7 353 339 338 280 232 141 212 244 234 318 303 298 308 316 311 334 282 322 9 360 343 41 18 344 334 19 3 39 26 38 42 95 132 177 105 296 150 117 111 86 79 164 318 255 261 328 285 301 302 121 40 354 356 57 109 115 119
354 354 355 353 352 353 356 356 356 355 357 353 356 344 324 354 352 320 237 251 86 42 343 354 347 344 8 15 6 16 342 335 348 329 336 13 40 81 356 351 333 322 292 270 279 300 291 76 274 57 56 117 207 2 336 336 354 350 25 27 28 26 43 58 114 154 63 66 109 135 135 121 257 320 325 15 306 306 321 69 28 304 342 26 87 92 90
355 354 354 354 352 354 355 356 355 355 354 2 338 315 313 352 20 345 358 7 77 86 1 9 10 18 19 4 3 5 343 20 347 359 335 356 18 353 351 340 346 334 16 343 286 347 354 6 295 101 66 333 70 226 1 15 356 343 343 33 34 30 6 7 41 57 35 44 55 82 42 83 306 294 299 309 271 325 359 93 220 283 332 57 62 81 87
354 354 354 353 352 352 354 355 356 354 355 355 357 318 312 334 358 356 15 79 93 47 8 26 33 26 28 359 14 342 357 360 349 302 23 319 3 352 328 331 351 355 13 12 343 31 329 101 45 94 90 307 134 124 104 275 58 251 356 43 35 9 354 30 56 43 150 131 101 87 59 353 319 293 297 304 307 357 73 116 197 219 270 106 98 82 72
354 354 354 354 352 352 353 355 356 356 357 358 343 326 316 350 2 30 6 57 64 76 15 47 54 56 25 30 18 14 27 16 355 19 333 348 353 326 311 95 21 336 6 352 337 20 23 344 23 78 119 312 23 143 191 40 218 157 74 73 62 25 5 12 44 18 35 84 83 110 95 249 265 291 284 316 55 61 90 351 47 70 69 67 87 93 78
354 354 354 354 352 351 352 354 354 354 355 356 0 294 274 315 13 58 49 358 95 85 37 56 41 66 51 39 16 24 359 23 20 33 21 332 301 329 0 8 346 4 352 11 24 336 22 2 350 2 68 128 287 202 50 50 48 40 56 70 97 282 67 46 23 314 11 50 95 79 24 335 345 320 22 6 84 199 98 105 66 65 82 88 85 90 90
353 352 353 353 352 351 350 352 353 352 354 355 355 336 327 337 2 6 45 37 101 84 2 36 85 65 61 76 55 38 43 48 26 16 322 294 287 340 64 360 332 344 11 1 10 344 352 347 346 2 5 61 326 51 95 121 41 9 65 91 74 342 90 94 52 315 87 36 51 100 50 9 355 46 89 33 62 315 55 99 92 61 64 78 86 78 88
352 352 352 352 352 350 349 349 351 351 353 354 349 324 323 348 0 7 342 339 98 141 208 210 125 122 100 112 137 105 63 45 51 49 3 339 336 59 77 22 6 349 19 342 25 345 357 320 351 27 19 355 354 44 328 69 54 43 21 49 47 346 96 103 96 335 94 118 107 82 88 76 42 64 78 75 65 72 66 60 58 60 49 51 59 45 44
352 352 351 351 351 349 347 347 348 348 350 353 359 23 303 324 345 340 349 344 21 20 179 291 51 38 94 86 65 62 108 94 120 59 45 36 348 26 56 25 353 312 351 51 57 231 266 2 291 237 39 38 351 325 33 73 87 33 71 15 135 70 105 101 78 61 70 71 84 84 54 51 57 52 56 65 68 63 64 68 74 64 67 54 63 58 52
350 350 348 348 348 347 345 344 345 345 346 347 355 315 324 320 308 357 349 315 115 100 354 356 62 342 335 48 40 60 37 86 63 122 104 83 72 342 346 73 241 342 332 299 234 265 274 269 254 59 70 336 11 38 46 31 17 343 63 26 43 47 53 72 101 149 90 81 75 89 96 76 69 72 63 63 66 74 79 84 86 81 74 75 68 68 62
344 345 344 344 343 343 342 341 340 342 344 346 345 303 257 277 349 17 24 24 344 35 135 321 46 215 340 85 147 109 108 26 46 83 73 95 98 88 30 279 199 162 274 280 325 21 5 25 6 24 74 332 58 11 3 92 1 67 81 10 33 5 39 75 73 88 93 137 116 104 110 121 109 92 71 56 56 76 86 93 95 96 90 89 92 85 76
342 341 340 340 340 337 338 336 338 339 341 342 347 330 340 317 357 16 32 26 286 145 92 127 220 14 44 54 55 69 43 53 352 50 79 80 104 279 270 321 345 173 217 294 345 38 351 20 41 41 51 306 37 55 6 317 92 65 82 24 299 62 30 87 140 104 93 94 114 127 120 94 86 89 87 88 76 63 71 73 70 67 73 77 83 98 115
337 337 336 337 334 331 332 330 333 339 340 343 338 322 320 309 31 52 53 329 19 7 13 42 292 149 87 74 46 65 59 41 360 23 0 56 21 331 15 3 0 351 5 345 324 99 33 54 59 10 34 315 338 278 78 9 43 52 47 358 6 53 54 52 68 91 90 137 125 109 93 110 97 102 110 111 113 104 95 87 81 83 81 84 88 94 95
334 334 335 333 329 326 324 327 332 338 340 335 318 297 286 296 55 27 8 20 72 134 210 277 322 222 296 32 58 94 78 81 31 31 352 7 20 2 46 359 18 9 346 28 8 27 47 49 353 291 70 342 32 340 335 356 76 54 51 18 12 78 67 100 96 118 129 142 179 124 119 94 110 124 138 149 151 136 134 120 117 121 131 141 131 119 108
333 333 332 330 325 320 321 323 330 335 334 332 307 302 311 82 70 55 10 342 11 70 252 235 207 28 104 235 344 42 117 110 102 76 303 311 359 22 34 341 33 350 352 11 17 79 86 117 80 68 53 226 83 316 351 39 69 71 77 72 57 65 74 86 121 114 110 96 69 100 108 136 148 114 99 87 71 76 103 128 136 133 134 136 140 143 172
331 331 331 328 323 323 318 322 325 328 330 317 312 305 27 348 18 48 6 342 331 214 66 26 36 265 293 37 346 356 310 117 60 21 349 321 250 33 60 53 19 334 28 315 43 55 345 113 8 43 46 21 105 248 43 21 78 69 54 62 46 56 58 71 86 101 106 106 114 110 102 88 85 86 85 79 71 86 91 84 83 73 47 40 35 49 47
330 331 331 328 319 313 315 319 327 326 324 278 245 38 60 27 294 51 358 337 320 40 120 141 220 272 73 201 260 341 321 71 79 56 328 322 0 16 3 85 33 38 35 356 30 26 47 45 347 51 135 41 98 57 323 66 78 65 56 75 77 68 50 43 81 108 114 106 124 130 113 107 95 78 56 70 67 57 61 66 71 81 67 48 356 96 107
330 332 330 327 324 319 319 326 336 332 308 347 52 100 171 204 252 329 321 305 317 13 52 358 329 101 125 324 253 260 3 7 312 115 336 344 8 5 327 85 147 25 114 66 256 31 8 264 74 6 37 322 68 39 33 69 84 90 99 73 49 49 45 44 38 44 68 83 91 83 75 69 91 112 128 94 93 91 101 120 144 127 130 149 49 135 143
328 330 332 333 332 331 327 332 332 326 341 300 267 280 300 337 317 298 295 315 341 193 283 61 239 239 144 212 221 61 337 316 25 84 346 329 32 11 340 352 101 53 334 81 343 98 233 59 92 54 283 1 63 14 65 107 197 165 115 101 81 69 59 31 35 49 64 60 66 87 92 104 126 145 144 150 132 102 74 44 52 355 172 132 72 69 111
329 332 333 338 341 342 330 305 289 284 278 304 21 242 190 291 292 271 312 251 290 317 24 151 301 336 247 344 39 309 350 30 1 38 73 308 323 32 15 313 347 73 326 96 241 53 330 67 55 206 18 14 15 68 6 65 100 80 101 111 110 101 113 92 52 52 67 65 62 87 102 88 69 75 88 91 115 113 110 101 269 309 0 123 167 215 114
329 332 330 329 334 321 306 303 312 207 261 240 105 226 20 341 297 290 322 27 38 1 355 290 135 315 33 54 53 273 269 18 20 339 90 259 24 10 324 34 331 74 284 265 2 150 81 290 272 47 292 291 52 60 237 47 61 64 60 71 116 115 105 111 149 111 102 91 84 61 46 74 112 211 212 174 157 161 162 183 128 88 45 360 0 106 105
328 327 327 324 313 294 283 219 192 243 250 14 271 145 157 290 293 287 266 317 125 127 56 302 306 253 329 107 103 285 343 43 328 341 25 43 19 305 358 86 32 273 233 51 79 22 47 270 64 0 310 56 278 123 129 82 73 56 51 39 27 85 105 120 115 98 89 83 74 63 52 18 351 325 9 62 118 107 113 104 90 85 73 39 339 5 79
326 322 315 309 295 255 270 239 156 46 205 225 303 321 305 317 261 193 242 138 266 72 194 227 3 352 27 167 139 302 9 9 283 52 6 37 281 276 358 31 60 287 19 22 42 47 260 239 94 253 354 178 193 127 100 80 77 72 69 54 24 33 71 100 120 121 116 105 94 72 49 316 300 314 337 29 20 127 138 147 142 128 138 49 9 90 113
314 307 325 308 264 244 128 351 292 252 8 317 304 336 348 47 2 318 152 194 192 151 270 204 38 316 6 62 50 279 48 339 12 64 345 292 26 5 351 79 236 76 356 52 290 214 276 72 168 120 263 41 58 60 65 75 79 79 67 48 42 33 21 77 129 128 133 124 104 74 7 359 330 310 349 337 316 271 179 155 145 136 134 165 162 134 112
201 307 236 268 290 355 112 254 100 61 332 286 100 70 299 146 100 268 219 150 77 348 284 79 26 353 36 54 55 355 92 259 351 41 41 329 82 327 23 38 295 63 315 50 300 351 14 315 156 119 40 359 39 23 70 75 66 63 78 67 56 36 26 33 64 90 102 121 143 168 184 207 217 305 26 19 20 15 114 129 129 141 157 193 187 152 143
208 181 231 208 178 201 251 73 73 78 277 27 253 109 312 215 92 107 268 92 115 42 35 60 306 39 16 78 149 351 329 41 40 50 334 354 31 106 285 285 294 72 317 61 268 320 85 326 344 43 144 323 73 45 57 45 53 45 60 61 54 42 15 50 114 107 109 128 167 192 188 179 79 73 35 338 92 56 17 46 99 106 147 121 103 120 129
206 276 327 25 335 159 204 175 154 279 54 296 10 351 21 345 293 155 65 275 147 160 293 122 260 44 4 6 33 73 295 354 294 355 106 106 258 109 10 322 173 55 289 76 293 30 27 1 11 25 71 112 104 95 78 62 49 41 52 49 37 26 21 21 117 125 138 182 197 135 109 108 102 95 55 45 85 96 160 198 177 223 188 145 148 182 120
320 275 341 314 282 275 293 322 275 355 24 331 96 290 152 200 19 4 84 75 32 70 28 15 37 29 27 358 20 98 112 308 249 63 71 68 283 101 237 302 16 95 15 291 283 295 95 24 340 43 140 124 79 65 71 60 44 50 45 45 38 23 15 3 63 72 40 356 40 84 81 90 73 30 75 92 127 122 134 316 322 327 258 183 173 142 131
292 266 190 267 244 254 144 156 237 135 97 5 42 14 311 94 209 206 126 121 223 93 206 257 122 94 39 8 56 89 159 265 59 332 63 145 287 77 57 27 50 354 257 345 21 355 36 321 304 164 177 90 79 75 66 69 44 45 71 71 61 36 36 12 346 354 190 153 89 88 42 62 68 105 117 345 284 236 207 204 194 228 275 168 177 148 134
251 211 172 237 139 263 78 8 257 34 359 23 128 163 239 216 194 193 108 84 33 56 340 100 239 142 230 278 142 351 40 354 8 23 15 62 55 341 52 222 185 217 113 50 263 235 218 198 199 166 192 134 107 112 111 108 116 74 76 106 111 106 62 13 353 351 342 92 135 119 83 62 28 347 167 194 220 312 193 214 216 223 248 234 194 200 158
357 329 178 22 19 243 59 329 305 127 221 192 184 251 169 88 72 68 110 250 64 175 222 31 32 36 83 237 34 25 93 156 12 92 226 68 8 289 150 294 4 1 347 297 319 323 350 357 359 55 78 90 115 135 138 131 116 107 125 139 76 125 129 163 248 288 320 339 7 31 353 201 215 232 251 328 224 218 194 205 233 230 217 219 217 263 143
215 166 120 86 349 301 191 195 162 252 249 207 207 133 78 94 104 97 68 21 35 82 69 36 354 20 17 166 125 216 264 218 33 221 151 104 104 299 22 329 24 355 6 12 11 308 314 68 186 40 62 64 64 59 78 90 85 95 52 129 179 171 159 183 203 230 261 257 26 38 32 20 0 4 347 303 275 212 187 226 258 289 178 215 258 239 168
267 1 296 50 57 226 134 222 208 223 297 102 79 65 68 85 91 92 40 16 64 63 107 103 23 84 36 338 6 354 46 70 164 300 64 14 166 332 79 78 345 341 279 301 242 263 20 22 36 25 43 93 92 85 95 4 147 131 118 189 192 188 199 188 207 221 233 231 239 214 199 198 33 324 359 359 340 338 314 264 223 249 259 227 236 255 142
310 188 124 100 240 168 182 241 241 208 68 71 60 61 88 94 85 70 62 61 63 54 60 57 19 358 343 318 92 213 204 119 58 287 129 310 35 81 35 22 301 277 220 197 267 55 104 164 52 20 12 38 61 24 21 357 23 160 250 260 123 122 169 205 222 206 153 181 202 225 228 191 180 219 211 179 217 272 286 280 236 221 235 263 286 143 155
232 1 329 245 241 242 251 222 165 135 112 88 97 99 86 73 106 113 85 63 56 60 65 64 85 50 301 187 201 354 347 63 72 323 9 81 96 206 100 245 307 294 295 72 7 1 10 123 57 28 21 355 342 216 229 246 32 354 349 340 308 210 209 227 236 232 242 251 246 236 213 205 212 205 206 194 209 236 255 271 239 203 197 212 231 258 281
52 316 218 295 319 313 327 351 62 30 76 64 39 22 114 85 80 54 8 80 119 69 27 38 57 87 278 50 332 92 273 63 277 36 54 340 194 132 112 271 215 238 348 21 335 305 335 36 46 37 1 316 308 329 325 345 30 345 333 307 293 293 278 243 231 216 224 232 240 241 269 252 190 195 185 195 211 230 244 253 216 203 201 204 206 207 235
23 300 262 233 238 294 38 32 1 358 88 118 91 28 64 100 129 88 0 31 62 59 56 140 129 135 336 332 47 6 292 47 11 242 146 216 107 279 194 228 308 27 73 218 237 241 114 98 89 63 4 345 357 18 17 1 335 213 292 349 340 325 319 328 343 306 272 248 224 190 287 263 128 113 117 207 235 243 271 269 225 182 187 197 199 212 220
223 225 248 239 232 254 201 138 153 100 99 117 82 22 71 88 105 121 250 19 90 100 266 116 137 169 170 159 345 320 21 178 212 29 336 292 96 203 242 125 90 348 326 327 313 354 62 60 52 28 281 278 303 6 4 243 263 283 251 125 232 287 321 325 313 297 291 289 274 241 248 191 216 190 138 170 253 268 267 280 250 198 175 187 200 211 223